Wind_Speed
18 18 17 17 17 16 15 14 12 13 12 10 9 8 9 10 9 10 9 5 12 13 13 13 14 9 3 2 2 1 2 4 5 8 6 10 5 6 4 15 5 3 11 20 26
21 20 20 19 18 17 15 14 13 11 12 12 9 8 8 9 8 9 6 7 13 16 14 15 15 9 2 3 2 2 1 3 4 6 9 12 9 12 6 15 6 13 18 28 26
23 22 22 22 20 19 17 15 12 11 12 11 9 7 7 7 4 1 4 10 17 15 9 12 12 6 3 2 2 1 2 0 4 6 12 13 10 10 13 10 7 17 25 26 23
23 21 22 23 22 20 17 14 12 11 11 11 8 7 6 3 2 1 6 13 20 15 14 14 12 4 2 1 3 1 2 2 2 6 14 12 11 8 9 3 12 21 29 26 23
23 22 21 21 21 20 18 16 12 11 11 10 7 6 5 3 2 5 11 17 19 16 13 12 15 6 3 2 2 3 2 5 4 9 7 10 9 3 8 6 15 24 28 25 22
24 23 21 20 19 18 16 15 13 14 11 9 7 5 3 2 5 7 13 15 13 13 12 13 11 9 3 2 3 3 6 9 7 12 7 8 6 7 8 17 19 26 28 24 22
25 24 22 21 18 14 13 12 14 11 7 6 5 4 5 3 6 11 12 9 6 5 4 14 10 7 5 2 1 2 3 6 13 11 6 8 6 10 15 20 22 25 27 23 22
25 25 24 21 20 15 10 11 10 8 7 5 3 3 2 7 9 11 12 11 7 5 3 10 11 4 3 2 1 3 2 1 3 8 6 13 1 9 19 22 24 25 25 23 22
25 24 22 20 18 10 10 11 6 4 5 8 3 2 1 6 6 8 10 7 6 5 7 8 8 4 4 3 3 1 4 7 1 10 2 12 5 8 21 20 23 24 25 24 22
24 23 21 19 17 7 8 8 5 3 3 5 2 1 4 3 4 7 10 8 3 6 7 4 2 3 4 6 7 4 5 4 6 2 7 12 6 7 19 21 22 23 24 24 24
24 23 22 19 14 3 6 4 4 1 4 2 3 4 5 3 7 7 9 10 7 4 5 2 6 10 9 5 7 6 3 2 1 2 2 11 11 9 16 17 18 22 23 25 26
26 25 22 20 10 1 3 3 6 5 4 3 4 8 6 3 3 6 11 7 4 6 5 5 10 3 2 5 7 6 4 2 4 1 1 2 11 9 16 19 20 24 26 26 23
25 23 21 19 5 2 3 6 8 6 2 3 1 2 2 4 1 6 11 6 5 4 4 7 2 8 4 3 6 4 5 3 2 2 2 1 3 4 10 12 15 19 22 22 25
24 23 19 15 1 3 4 5 8 5 1 1 2 3 4 3 1 5 10 5 2 5 5 5 3 5 6 4 3 9 7 5 3 7 6 3 5 3 9 13 14 20 22 24 25
22 22 19 14 4 5 3 4 5 1 2 2 3 3 7 3 1 4 9 5 6 6 4 3 5 7 5 4 8 4 6 2 2 1 9 8 5 2 4 12 18 25 26 27 26
21 22 19 10 2 8 3 4 1 3 3 2 2 4 5 2 2 4 3 4 5 5 1 2 1 3 6 4 11 3 6 3 3 3 8 10 9 7 6 11 17 22 28 29 27
21 19 13 3 3 7 2 1 2 1 2 2 2 2 5 4 4 3 4 3 1 3 3 1 4 2 3 4 4 5 7 5 7 6 9 4 8 9 7 13 14 16 28 31 30
21 15 3 2 5 3 1 1 1 1 2 2 1 5 4 4 4 5 4 4 5 2 3 3 5 6 5 7 6 9 10 6 10 10 10 4 8 8 6 8 20 18 15 21 26
18 6 5 6 5 1 2 1 2 1 2 1 1 4 3 3 3 3 5 3 4 4 1 2 1 2 1 1 4 5 8 4 2 1 4 7 7 11 8 9 6 14 17 21 25
16 5 5 3 3 3 1 2 2 2 3 1 3 2 3 4 2 3 3 4 5 4 5 3 2 2 1 2 4 3 7 6 3 7 6 4 6 11 9 5 2 2 12 18 21
6 4 3 2 3 1 2 1 2 6 2 5 2 3 4 3 4 3 3 3 6 4 2 1 3 3 3 3 3 3 4 1 2 3 8 7 6 3 2 6 9 8 8 11 19
4 2 1 2 1 2 2 3 3 3 6 4 4 6 4 5 4 3 3 3 12 3 2 3 1 2 3 2 3 1 3 1 6 7 2 4 5 3 5 6 9 9 8 6 7
6 1 2 2 1 1 1 4 5 2 5 3 3 4 4 3 3 2 2 3 12 4 3 1 1 3 4 5 3 3 3 3 1 1 6 8 6 4 5 10 13 13 13 10 6
3 0 1 1 2 1 4 2 5 6 5 6 4 2 3 3 6 3 3 3 7 8 8 2 2 2 4 3 3 2 0 3 3 3 3 6 2 6 7 8 12 14 14 14 14
2 1 1 1 2 0 0 2 6 3 4 5 4 5 2 3 2 2 2 1 4 10 4 2 2 2 1 2 3 5 7 6 5 3 5 3 6 8 5 7 10 11 12 14 15
1 2 1 0 2 2 1 3 6 4 1 3 5 3 3 3 1 3 2 3 3 6 3 3 1 1 2 2 4 7 9 8 3 2 5 6 5 7 8 8 12 13 12 13 14
3 2 2 1 2 3 3 3 7 9 7 5 13 6 6 5 5 5 4 4 3 3 3 2 1 0 3 4 6 8 4 4 2 2 1 4 4 11 5 10 11 10 11 11 12
Wind_Direction
358 355 351 351 350 352 347 339 332 325 325 321 314 304 292 288 288 280 274 230 188 185 181 172 159 159 134 32 39 27 95 137 140 160 139 165 143 129 99 138 91 15 150 153 156
358 354 350 347 347 347 346 340 330 324 323 321 316 307 301 292 293 281 238 191 177 173 179 175 166 158 101 350 1 29 97 103 162 154 157 172 163 147 130 155 89 87 127 150 155
357 352 349 346 343 342 341 338 328 321 321 321 316 308 305 304 314 149 173 176 162 165 170 170 166 144 92 339 330 137 72 96 188 178 169 164 170 154 139 181 173 150 149 156 161
356 353 348 345 343 340 336 335 328 319 322 320 318 308 301 298 150 339 186 168 165 157 153 159 159 136 114 81 258 280 192 329 147 159 168 172 162 179 170 171 171 162 160 161 169
353 351 348 345 342 340 336 334 332 324 321 319 317 304 297 248 180 73 152 163 164 157 167 159 160 153 150 182 229 283 331 210 242 170 179 177 196 152 179 160 152 155 164 168 174
352 350 348 346 343 340 337 335 334 321 310 309 302 287 266 244 175 140 141 162 178 174 182 180 177 171 122 180 214 225 263 246 230 208 199 180 203 199 153 149 149 159 169 175 179
352 350 349 345 341 341 335 337 337 340 328 308 288 271 244 219 178 155 147 151 151 165 195 196 150 175 174 195 237 249 250 237 242 213 205 179 201 211 162 158 156 167 172 180 185
351 351 351 348 342 339 334 337 342 342 344 333 300 286 231 179 159 156 158 150 139 124 119 182 165 155 223 302 164 216 228 167 65 190 201 190 188 181 169 163 165 173 177 184 189
351 350 349 347 341 340 333 335 341 348 359 359 337 324 144 163 173 179 164 155 137 128 119 137 179 170 150 178 180 6 155 147 224 186 138 205 259 181 178 177 173 179 183 183 193
347 347 347 346 341 337 337 329 329 323 334 346 16 352 100 127 170 189 200 184 124 144 128 144 147 188 145 185 204 162 147 132 185 83 196 203 234 169 190 189 186 182 186 188 195
345 346 345 344 340 333 347 338 335 345 337 216 276 286 296 32 160 194 198 187 172 150 167 128 195 199 196 139 116 103 105 115 230 60 247 214 225 187 193 202 190 187 189 192 201
346 343 344 345 340 177 25 62 34 318 312 312 250 260 275 302 123 135 159 155 167 162 137 157 218 160 148 152 145 143 145 204 264 317 214 218 230 214 198 208 199 189 195 198 197
343 341 345 347 350 172 125 26 1 346 297 311 184 174 172 147 135 154 164 153 140 141 174 189 117 152 157 158 179 156 184 170 309 350 83 177 214 199 213 220 213 213 210 206 201
343 341 340 349 332 198 178 345 339 313 325 51 178 141 162 137 194 187 177 157 108 157 150 205 140 155 162 176 222 231 195 168 175 248 245 323 273 241 203 212 216 217 213 212 211
342 337 335 337 276 197 187 311 316 288 118 132 129 146 150 153 100 154 164 161 166 144 196 169 178 192 199 197 185 242 168 159 153 161 222 240 255 224 199 215 219 217 217 217 213
342 335 332 330 262 179 205 310 192 249 113 124 94 153 148 67 75 115 137 102 120 121 126 211 259 213 200 176 193 121 143 77 86 167 224 206 226 229 206 225 228 219 217 218 214
342 333 329 339 142 174 233 166 229 332 336 50 78 111 97 34 92 33 132 91 101 156 174 196 206 254 190 175 133 186 189 201 210 207 231 147 216 242 231 241 241 221 214 214 215
344 339 37 80 156 169 188 177 110 59 20 51 116 84 87 4 57 29 99 120 60 47 139 178 192 198 166 219 209 188 212 225 219 216 220 167 216 231 222 265 248 242 233 220 217
351 16 80 82 106 71 146 134 70 333 332 6 110 77 74 62 40 89 52 43 21 3 284 158 242 291 231 1 196 160 209 252 241 109 246 209 224 268 247 256 267 247 233 223 219
355 105 66 114 55 353 141 117 102 306 339 57 90 0 108 16 114 76 59 16 345 359 262 157 244 30 345 159 64 254 143 186 207 217 225 184 231 233 216 256 336 255 240 237 228
14 104 30 146 348 56 133 80 117 34 42 16 96 97 78 62 43 70 28 75 352 331 23 118 269 127 212 48 41 152 186 79 239 273 240 220 210 270 267 344 322 317 291 257 233
19 124 353 168 258 356 128 116 13 32 41 64 78 65 55 40 55 88 104 19 351 296 54 38 305 208 78 335 245 56 62 323 239 198 233 301 217 38 36 26 348 359 357 328 245
354 1 33 190 236 122 151 108 57 80 42 54 88 53 60 78 99 75 80 28 12 40 45 12 86 202 158 150 135 91 77 80 39 296 204 223 206 62 37 49 38 33 30 38 55
5 154 30 129 101 182 148 126 120 62 79 65 85 105 116 91 44 117 98 46 4 28 36 164 86 319 283 39 0 177 15 45 352 242 157 222 196 22 31 35 43 44 52 64 68
23 89 123 162 86 264 276 133 132 119 77 53 92 62 105 115 107 93 58 51 60 11 38 20 104 315 307 312 316 292 294 308 306 296 265 10 307 346 18 41 42 50 52 55 57
284 157 148 238 302 227 302 156 143 121 69 86 116 110 121 141 96 139 109 36 37 10 55 4 106 334 275 327 295 277 281 281 240 222 273 303 279 42 35 48 49 37 41 42 41
222 219 164 146 171 192 192 160 144 138 49 117 136 123 105 101 98 79 80 87 66 13 42 33 92 315 254 333 300 249 263 265 195 127 282 276 11 324 53 43 39 39 39 37 28
Height
1522 1520 1517 1514 1511 1508 1506 1503 1501 1499 1497 1496 1495 1494 1493 1491 1492 1492 1493 1495 1496 1497 1500 1503 1505 1507 1508 1508 1507 1506 1507 1511 1508 1509 1511 1512 1512 1518 1520 1523 1526 1527 1528 1532 1535
1521 1518 1516 1513 1510 1507 1504 1502 1499 1497 1495 1494 1493 1492 1491 1490 1490 1490 1492 1492 1494 1497 1500 1503 1505 1507 1509 1507 1507 1506 1505 1504 1503 1505 1507 1510 1512 1516 1520 1523 1527 1528 1530 1533 1537
1521 1517 1515 1511 1508 1505 1502 1500 1497 1495 1494 1492 1492 1491 1489 1489 1489 1488 1489 1491 1494 1498 1500 1503 1506 1509 1510 1509 1507 1506 1506 1504 1503 1505 1507 1509 1512 1515 1518 1522 1525 1528 1532 1535 1539
1519 1516 1513 1510 1507 1505 1502 1499 1496 1493 1492 1491 1491 1490 1489 1489 1491 1488 1489 1491 1495 1498 1500 1502 1506 1509 1509 1509 1507 1505 1504 1503 1503 1505 1508 1509 1511 1514 1517 1518 1522 1526 1531 1535 1540
1518 1515 1511 1507 1504 1502 1500 1497 1495 1493 1490 1489 1489 1489 1489 1489 1488 1488 1489 1492 1495 1499 1501 1502 1506 1509 1508 1508 1509 1506 1504 1504 1505 1507 1508 1509 1511 1514 1518 1520 1522 1525 1532 1536 1540
1516 1512 1508 1505 1502 1499 1497 1495 1494 1492 1489 1488 1488 1488 1489 1490 1488 1489 1492 1495 1497 1499 1501 1502 1505 1508 1509 1509 1508 1507 1507 1504 1505 1506 1507 1508 1511 1513 1517 1519 1523 1525 1532 1536 1540
1515 1511 1507 1503 1499 1495 1494 1493 1492 1490 1488 1487 1487 1487 1487 1488 1488 1489 1492 1496 1498 1499 1501 1502 1504 1508 1508 1507 1508 1507 1508 1504 1500 1505 1505 1507 1511 1511 1515 1519 1522 1527 1531 1536 1540
1513 1509 1506 1502 1498 1495 1491 1490 1489 1488 1487 1486 1486 1487 1486 1486 1488 1490 1492 1495 1497 1499 1500 1501 1504 1507 1507 1508 1507 1504 1507 1506 1502 1503 1505 1506 1509 1509 1514 1517 1521 1526 1530 1534 1538
1511 1507 1503 1499 1495 1491 1490 1488 1487 1487 1486 1485 1486 1487 1487 1487 1490 1491 1494 1496 1497 1499 1501 1502 1505 1505 1507 1505 1508 1509 1512 1505 1504 1503 1504 1506 1505 1508 1512 1515 1520 1524 1528 1532 1537
1508 1505 1501 1497 1493 1491 1488 1487 1486 1486 1485 1485 1485 1489 1488 1488 1489 1491 1493 1496 1497 1498 1502 1504 1504 1503 1504 1503 1511 1510 1509 1508 1508 1504 1503 1505 1506 1508 1511 1513 1518 1522 1526 1530 1533
1506 1502 1499 1495 1491 1490 1488 1486 1489 1487 1484 1484 1486 1487 1488 1488 1488 1490 1492 1495 1497 1498 1498 1503 1503 1504 1500 1504 1505 1506 1511 1513 1509 1504 1504 1503 1503 1510 1512 1514 1516 1521 1525 1527 1531
1504 1500 1496 1493 1489 1489 1489 1487 1488 1489 1485 1482 1482 1484 1485 1488 1489 1490 1492 1496 1497 1498 1500 1503 1504 1505 1505 1507 1507 1508 1513 1512 1507 1505 1505 1505 1504 1506 1509 1510 1513 1516 1520 1524 1530
1502 1497 1494 1491 1489 1490 1489 1490 1487 1486 1486 1481 1481 1482 1485 1487 1488 1490 1493 1494 1496 1499 1500 1501 1502 1505 1505 1507 1509 1510 1510 1512 1511 1507 1506 1508 1508 1509 1508 1511 1514 1515 1519 1523 1525
1499 1495 1492 1489 1490 1488 1490 1489 1488 1487 1486 1483 1481 1482 1484 1485 1488 1490 1492 1494 1497 1500 1501 1501 1503 1502 1505 1508 1507 1511 1507 1507 1510 1511 1516 1508 1517 1507 1507 1509 1511 1512 1514 1518 1522
1497 1493 1489 1487 1486 1488 1489 1489 1488 1489 1495 1483 1482 1482 1482 1486 1488 1489 1491 1493 1494 1498 1502 1502 1502 1503 1505 1505 1506 1508 1506 1507 1508 1511 1510 1513 1515 1498 1505 1507 1503 1504 1507 1511 1517
1495 1490 1487 1485 1484 1486 1488 1488 1490 1492 1500 1483 1481 1481 1482 1484 1486 1489 1491 1493 1495 1497 1500 1499 1501 1500 1498 1500 1502 1504 1507 1511 1512 1510 1523 1507 1509 1499 1498 1491 1489 1497 1502 1505 1510
1492 1488 1484 1483 1485 1486 1487 1488 1492 1492 1485 1487 1484 1482 1483 1487 1486 1489 1490 1494 1496 1504 1504 1501 1499 1499 1499 1500 1504 1505 1506 1518 1525 1523 1518 1512 1511 1492 1483 1483 1484 1486 1491 1496 1502
1489 1485 1484 1484 1485 1486 1487 1490 1495 1489 1488 1486 1485 1485 1487 1490 1490 1491 1494 1498 1500 1500 1505 1505 1509 1497 1496 1495 1498 1502 1501 1507 1525 1518 1511 1511 1504 1486 1478 1479 1479 1483 1487 1493 1497
1486 1485 1486 1486 1486 1486 1488 1490 1490 1489 1487 1486 1486 1487 1492 1492 1490 1494 1502 1503 1504 1503 1503 1505 1504 1496 1496 1495 1496 1504 1506 1496 1508 1519 1510 1495 1491 1477 1476 1475 1477 1479 1484 1486 1489
1484 1485 1487 1487 1486 1486 1485 1491 1489 1489 1487 1487 1492 1493 1495 1496 1493 1495 1502 1508 1507 1505 1504 1504 1505 1499 1496 1497 1498 1496 1498 1506 1508 1523 1523 1505 1499 1483 1476 1474 1478 1479 1480 1482 1485
1484 1485 1487 1487 1487 1485 1483 1489 1487 1489 1489 1489 1493 1495 1499 1499 1500 1502 1509 1511 1510 1506 1504 1503 1502 1499 1497 1500 1502 1500 1499 1503 1497 1503 1504 1507 1495 1476 1478 1479 1479 1478 1477 1476 1477
1485 1484 1487 1486 1488 1491 1485 1485 1487 1489 1492 1492 1493 1496 1499 1504 1504 1504 1508 1511 1511 1508 1505 1509 1503 1501 1500 1502 1504 1501 1504 1503 1497 1509 1504 1500 1488 1478 1480 1481 1479 1476 1474 1472 1472
1487 1486 1485 1487 1487 1488 1490 1488 1490 1488 1493 1493 1498 1499 1504 1507 1508 1509 1511 1513 1511 1508 1509 1509 1508 1505 1505 1502 1503 1502 1504 1506 1508 1505 1501 1498 1489 1484 1483 1483 1481 1479 1476 1475 1474
1487 1486 1488 1487 1487 1487 1486 1487 1488 1491 1494 1497 1500 1501 1503 1507 1509 1510 1511 1513 1513 1512 1511 1510 1512 1510 1504 1506 1507 1506 1505 1505 1504 1504 1500 1490 1484 1488 1487 1488 1486 1483 1482 1480 1479
1487 1489 1489 1487 1489 1489 1489 1487 1488 1492 1495 1497 1500 1503 1502 1506 1510 1512 1512 1512 1513 1513 1513 1512 1511 1515 1510 1510 1510 1508 1506 1502 1504 1503 1503 1497 1498 1494 1496 1494 1492 1490 1487 1485 1484
1489 1488 1489 1490 1490 1490 1491 1490 1489 1495 1495 1498 1500 1505 1506 1506 1507 1510 1512 1512 1516 1515 1515 1517 1517 1518 1512 1510 1508 1507 1501 1500 1502 1503 1503 1503 1495 1499 1500 1498 1495 1494 1491 1489 1487
1488 1487 1487 1488 1489 1489 1486 1489 1489 1493 1501 1499 1502 1504 1506 1510 1511 1513 1515 1518 1519 1520 1518 1518 1518 1516 1513 1513 1509 1508 1501 1501 1502 1502 1506 1502 1498 1500 1502 1501 1499 1496 1495 1493 1491